Terug naar catalogus

LEMUR 2 AFFIE-WAUWIE

ActiefWetenschapVLEO
NORAD 66295·PAYLOAD·🇺🇸 United States

Gelanceerd Nov 2, 2025 vanaf Cape Canaveral Space Force Station

Loading…

Volgende Passages (komende 24 uur)

TLE

VersSource: Space-Track

Epoch: Sep 14, 2026, 07:40 UTC

1 66295U 25248C   26257.31964281  .00019561  00000-0  66448-3 0  9998
2 66295  45.3916 350.9276 0007955 251.2663 108.7364 15.30230178 48237

Volg LEMUR 2 AFFIE-WAUWIE in realtime met AllMySat

Download on the App Store